Kbely Air Base

Jump to: basic info | weather | frequencies | runways | comments

Related pages: nearby airports | nearby navaids | notams | map

Basic information (top)

Codes: LKKB
Location: lon 50.121399, lat 14.543600, elev 939 ft / 286 m msl
Status: medium_airport

Weather (top)

Current conditions (rec'd 2015/04/25 12:00Z):

LKKB 251200Z 17005KT 110V280 CAVOK 20/M01 Q1011 NOSIG

Airport forecast (rec'd 2015/04/22 18:00Z):

TAF COR LKKB 221812Z 2218/2318 35006KT CAVOK 
      BECMG 2221/2223 VRB02KT SCT045 
      TEMPO 2222/2308 02008G18KT -RA BKN040 
      BECMG 2309/2311 BKN040 
      BECMG 2312/2314 CAVOK

Frequencies (top)

Verify before use: may be inaccurate or out of date.

APP: 124.675 MHz (APP)
GCA: 123.3 MHz (PRECISION)
TWR: 120.875 MHz (TWR)

Runways (top)

06/24: 6,562 x 148 ft (2,000 x 45 m) — paved — lighted

Latest comments (top)

No comments yet for Kbely Air Base

More... (top)

See also NOTAMs and nearby airports and navaids, or visit the Kbely Air Base page at the main OurAirports website..